TimeCST,TemperatureF,Dew PointF,Humidity,Sea Level PressureIn,VisibilityMPH,Wind Direction,Wind SpeedMPH,Gust SpeedMPH,PrecipitationIn,Events,Conditions,WindDirDegrees,DateUTC
12:15 AM,5.0,-0.4,78,29.99,10.0,Calm,Calm,-,N/A,,Clear,0,2013-02-04 06:15:00
12:35 AM,6.8,-2.2,67,29.99,10.0,ENE,3.5,-,N/A,,Mostly Cloudy,60,2013-02-04 06:35:00
12:55 AM,6.8,-2.2,67,29.99,10.0,NE,3.5,-,N/A,,Overcast,50,2013-02-04 06:55:00
1:15 AM,6.8,-4.0,61,29.99,10.0,NE,4.6,-,N/A,,Overcast,50,2013-02-04 07:15:00
1:35 AM,5.0,-4.0,66,29.99,10.0,NE,3.5,-,N/A,,Scattered Clouds,40,2013-02-04 07:35:00
1:55 AM,1.4,-5.8,72,30.00,10.0,NNE,3.5,-,N/A,,Scattered Clouds,30,2013-02-04 07:55:00
2:15 AM,3.2,-5.8,66,30.00,10.0,NE,3.5,-,N/A,,Scattered Clouds,40,2013-02-04 08:15:00
2:35 AM,1.4,-5.8,72,30.00,10.0,NE,3.5,-,N/A,,Clear,40,2013-02-04 08:35:00
2:55 AM,1.4,-5.8,72,30.00,10.0,Calm,Calm,-,N/A,,Clear,0,2013-02-04 08:55:00
3:15 AM,-0.4,-5.8,78,30.00,10.0,Calm,Calm,-,N/A,,Clear,0,2013-02-04 09:15:00
4:55 AM,-7.6,-13.0,77,30.01,10.0,Calm,Calm,-,N/A,,Clear,0,2013-02-04 10:55:00
5:15 AM,-7.6,-13.0,77,30.02,10.0,Calm,Calm,-,N/A,,Clear,0,2013-02-04 11:15:00
5:35 AM,-5.8,-11.2,77,30.01,10.0,Calm,Calm,-,N/A,,Clear,0,2013-02-04 11:35:00
5:55 AM,-9.4,-14.8,77,30.02,10.0,Calm,Calm,-,N/A,,Clear,0,2013-02-04 11:55:00
6:15 AM,-9.4,-14.8,77,30.02,10.0,Calm,Calm,-,N/A,,Clear,0,2013-02-04 12:15:00
6:55 AM,-13.0,-16.6,84,30.03,10.0,Calm,Calm,-,N/A,,Clear,0,2013-02-04 12:55:00
7:15 AM,-11.2,-16.6,77,30.04,10.0,Calm,Calm,-,N/A,,Clear,0,2013-02-04 13:15:00
7:35 AM,-13.0,-18.4,77,30.03,10.0,Calm,Calm,-,N/A,,Clear,0,2013-02-04 13:35:00
7:55 AM,-11.2,-14.8,84,30.03,10.0,Calm,Calm,-,N/A,,Clear,0,2013-02-04 13:55:00
8:15 AM,-13.0,-16.6,84,30.03,10.0,Calm,Calm,-,N/A,,Clear,0,2013-02-04 14:15:00
8:35 AM,-9.4,-14.8,77,30.03,10.0,Calm,Calm,-,N/A,,Clear,0,2013-02-04 14:35:00
8:55 AM,-4.0,-9.4,78,30.03,10.0,Calm,Calm,-,N/A,,Clear,0,2013-02-04 14:55:00
9:15 AM,-2.2,-9.4,71,30.03,10.0,Calm,Calm,-,N/A,,Clear,0,2013-02-04 15:15:00
9:35 AM,-0.4,-7.6,72,30.03,10.0,Calm,Calm,-,N/A,,Clear,0,2013-02-04 15:35:00
9:55 AM,1.4,-7.6,66,30.04,10.0,Calm,Calm,-,N/A,,Clear,0,2013-02-04 15:55:00
10:15 AM,3.2,-7.6,61,30.03,10.0,Calm,Calm,-,N/A,,Clear,0,2013-02-04 16:15:00
10:35 AM,3.2,-7.6,61,30.04,10.0,Calm,Calm,-,N/A,,Clear,0,2013-02-04 16:35:00
10:55 AM,5.0,-7.6,56,30.05,10.0,Calm,Calm,-,N/A,,Scattered Clouds,0,2013-02-04 16:55:00
11:15 AM,8.6,-7.6,48,30.05,10.0,Calm,Calm,-,N/A,,Overcast,0,2013-02-04 17:15:00
11:35 AM,8.6,-7.6,48,30.03,10.0,Calm,Calm,-,N/A,,Overcast,0,2013-02-04 17:35:00
11:55 AM,8.6,-7.6,48,30.02,10.0,Calm,Calm,-,N/A,,Overcast,0,2013-02-04 17:55:00
12:15 PM,10.4,-7.6,44,30.00,10.0,Calm,Calm,-,N/A,,Overcast,0,2013-02-04 18:15:00
12:35 PM,10.4,-7.6,44,29.98,10.0,Calm,Calm,-,N/A,,Overcast,0,2013-02-04 18:35:00
12:55 PM,10.4,-7.6,44,29.98,10.0,West,5.8,-,N/A,,Overcast,260,2013-02-04 18:55:00
1:15 PM,10.4,-9.4,41,29.97,10.0,SW,3.5,-,N/A,,Overcast,230,2013-02-04 19:15:00
1:35 PM,10.4,-7.6,44,29.97,10.0,WSW,3.5,-,N/A,,Overcast,240,2013-02-04 19:35:00
1:55 PM,12.2,-7.6,41,29.97,10.0,West,3.5,-,N/A,,Mostly Cloudy,260,2013-02-04 19:55:00
2:15 PM,12.2,-7.6,41,29.97,10.0,WNW,4.6,-,N/A,,Overcast,300,2013-02-04 20:15:00
2:35 PM,12.2,-7.6,41,29.97,10.0,West,4.6,-,N/A,,Overcast,260,2013-02-04 20:35:00
2:55 PM,12.2,-7.6,41,29.96,10.0,WSW,4.6,-,N/A,,Overcast,250,2013-02-04 20:55:00
3:15 PM,12.2,-7.6,41,29.95,10.0,West,8.1,-,N/A,,Overcast,260,2013-02-04 21:15:00
3:35 PM,12.2,-5.8,45,29.95,10.0,West,9.2,-,N/A,,Overcast,260,2013-02-04 21:35:00
3:55 PM,12.2,-5.8,45,29.94,10.0,West,6.9,-,N/A,,Mostly Cloudy,260,2013-02-04 21:55:00
4:15 PM,12.2,-4.0,48,29.93,10.0,West,5.8,-,N/A,,Scattered Clouds,260,2013-02-04 22:15:00
4:35 PM,12.2,-4.0,48,29.93,10.0,WNW,4.6,-,N/A,,Clear,300,2013-02-04 22:35:00
4:55 PM,10.4,-4.0,52,29.92,10.0,West,4.6,-,N/A,,Clear,260,2013-02-04 22:55:00
5:15 PM,10.4,-4.0,52,29.92,10.0,West,4.6,-,N/A,,Clear,270,2013-02-04 23:15:00
5:35 PM,10.4,-5.8,48,29.91,10.0,West,3.5,-,N/A,,Clear,260,2013-02-04 23:35:00
5:55 PM,10.4,-5.8,48,29.91,10.0,Calm,Calm,-,N/A,,Clear,0,2013-02-04 23:55:00
6:15 PM,10.4,-5.8,48,29.90,10.0,SW,3.5,-,N/A,,Clear,230,2013-02-05 00:15:00
6:35 PM,10.4,-4.0,52,29.88,10.0,SSW,3.5,-,N/A,,Clear,200,2013-02-05 00:35:00
6:55 PM,10.4,-4.0,52,29.88,10.0,SSW,5.8,-,N/A,,Clear,210,2013-02-05 00:55:00
7:15 PM,10.4,-4.0,52,29.88,10.0,SSW,5.8,-,N/A,,Clear,210,2013-02-05 01:15:00
7:35 PM,10.4,-4.0,52,29.87,10.0,SW,6.9,-,N/A,,Clear,220,2013-02-05 01:35:00
7:55 PM,10.4,-2.2,57,29.86,10.0,SSW,6.9,-,N/A,,Scattered Clouds,210,2013-02-05 01:55:00
8:15 PM,10.4,-2.2,57,29.85,10.0,SSW,5.8,-,N/A,,Mostly Cloudy,200,2013-02-05 02:15:00
8:35 PM,10.4,-0.4,62,29.85,10.0,SSW,5.8,-,N/A,,Overcast,200,2013-02-05 02:35:00
8:55 PM,10.4,-0.4,62,29.83,10.0,SSW,6.9,-,N/A,,Overcast,200,2013-02-05 02:55:00
9:15 PM,10.4,-0.4,62,29.83,10.0,SSW,5.8,-,N/A,,Overcast,210,2013-02-05 03:15:00
9:35 PM,10.4,-0.4,62,29.83,10.0,SSW,5.8,-,N/A,,Overcast,210,2013-02-05 03:35:00
9:55 PM,10.4,-0.4,62,29.81,10.0,SSW,6.9,-,N/A,,Overcast,210,2013-02-05 03:55:00
10:15 PM,12.2,1.4,62,29.81,4.0,SW,6.9,-,N/A,Snow,Light Snow,220,2013-02-05 04:15:00
10:35 PM,10.4,6.8,85,29.80,3.0,SSW,8.1,-,N/A,Snow,Light Snow,210,2013-02-05 04:35:00
10:55 PM,12.2,5.0,73,29.78,7.0,SSW,9.2,-,N/A,Snow,Light Snow,200,2013-02-05 04:55:00
11:15 PM,12.2,6.8,79,29.76,3.0,SSW,10.4,-,N/A,Snow,Light Snow,200,2013-02-05 05:15:00
11:35 PM,12.2,8.6,85,29.74,2.0,SSW,9.2,-,N/A,Snow,Light Snow,200,2013-02-05 05:35:00
11:55 PM,12.2,8.6,85,29.72,2.5,South,11.5,-,N/A,Snow,Light Snow,190,2013-02-05 05:55:00